Location: Sweet Grass
(48.9965°N, 111.9649°W)
Time: 08:42:22
(UTC+00:00)

EO-79 - Pass Details

Date: 06 April 2023
Orbit: 578 x 593 km, 98.0° (Epoch: 03 June)

Event Time Altitude Azimuth Distance (km) Brightness Sun altitude
Rises 11:16:18 0° 358° (N) 2,827 ? -16.0°
Reaches altitude 10° 11:19:20 10° 334° (NNW) 1,917 ? -15.5°
Maximum altitude 11:21:31 14° 302° (WNW) 1,653 ? -15.2°
Enters shadow 11:22:10 14° 291° (WNW) 1,675 ? -15.1°
